Tracking 29892 objects as of 21-Nov-2024
HD Live streaming from Space Station
objects crossing your sky now

STARLINK-31959

Track STARLINK-31959 now!
10-day predictions
STARLINK-31959 is classified as:


NORAD ID: 59925
Int'l Code: 2024-106D
Perigee: 450.2 km
Apogee: 452.2 km
Inclination: 43.0 °
Period: 93.5 minutes
Semi major axis: 6822 km
RCS: Unknown
Launch date: June 1, 2024
Source: United States (US)
Launch site: AIR FORCE EASTERN TEST RANGE (AFETR)
Your satellite tracking list
Your tracking list is empty




NASA's NSSDC Master Catalog

Two Line Element Set (TLE):
1 59925U 24106D   24325.86629409 -.00005510  00000-0 -12481-3 0  9995
2 59925  42.9995 140.8865 0001483 318.5575  41.5169 15.40681090 27922
Source of the keplerian elements: AFSPC